• în România
  • Lista ţărilor
  • Pe 7 zile
  • Temperatura apei
  • Hartă satelitară
  • Meteo pe hartă
  • Widget-uri
  • user-avatar
    Intrare

    Meteo pe oră la Fier

    Astăzi, 20 Ianuarie, Sâmbătă

    Timp Temperatura Precipitaţii Vânt Presiune Umiditate
    00:00 +7°C° 0 mm 6 m/s 759 mmHg 85%
    01:00 +8°C° 0 mm 6 m/s 759 mmHg 89%
    02:00 +8°C° 0,1 mm 6 m/s 758 mmHg 89%
    03:00 +8°C° 0,1 mm 6 m/s 758 mmHg 88%
    04:00 +8°C° 0,1 mm 6 m/s 758 mmHg 88%
    05:00 +8°C° 0,1 mm 6 m/s 758 mmHg 88%
    06:00 +9°C° 0,1 mm 6 m/s 757 mmHg 89%
    07:00 +9°C° 0 mm 5 m/s 757 mmHg 89%
    08:00 +10°C° 0,3 mm 5 m/s 757 mmHg 87%
    09:00 +10°C° 0,3 mm 5 m/s 757 mmHg 85%
    10:00 +12°C° 0,3 mm 5 m/s 757 mmHg 83%
    11:00 +13°C° 0,6 mm 5 m/s 757 mmHg 83%
    12:00 +13°C° 0,6 mm 5 m/s 757 mmHg 83%
    13:00 +13°C° 0,6 mm 6 m/s 757 mmHg 82%
    14:00 +13°C° 0,9 mm 5 m/s 757 mmHg 84%
    15:00 +12°C° 0,9 mm 4 m/s 757 mmHg 86%
    16:00 +12°C° 0,9 mm 3 m/s 757 mmHg 88%
    17:00 +11°C° 0,3 mm 3 m/s 757 mmHg 89%
    18:00 +12°C° 0,3 mm 2 m/s 757 mmHg 90%
    19:00 +11°C° 0,3 mm 1 m/s 758 mmHg 91%
    20:00 +11°C° 0,1 mm 1 m/s 758 mmHg 91%
    21:00 +10°C° 0,1 mm 2 m/s 758 mmHg 91%
    22:00 +9°C° 0,1 mm 2 m/s 758 mmHg 92%
    23:00 +9°C° 0 mm 2 m/s 758 mmHg 91%

    Mâine, 21 Ianuarie, Duminică

    Timp Temperatura Precipitaţii Vânt Presiune Umiditate
    00:00 +9°C° 0 mm 3 m/s 757 mmHg 91%
    01:00 +9°C° 0 mm 3 m/s 757 mmHg 90%
    02:00 +8°C° 0,1 mm 4 m/s 757 mmHg 90%
    03:00 +8°C° 0,1 mm 4 m/s 756 mmHg 90%
    04:00 +8°C° 0,1 mm 5 m/s 756 mmHg 89%
    05:00 +8°C° 0,3 mm 5 m/s 755 mmHg 89%
    06:00 +8°C° 0,3 mm 5 m/s 755 mmHg 88%
    07:00 +8°C° 0,3 mm 5 m/s 754 mmHg 88%
    08:00 +9°C° 0,4 mm 6 m/s 754 mmHg 85%
    09:00 +10°C° 0,4 mm 6 m/s 753 mmHg 81%
    10:00 +11°C° 0,4 mm 6 m/s 753 mmHg 78%
    11:00 +11°C° 1,9 mm 6 m/s 752 mmHg 81%
    12:00 +10°C° 1,9 mm 6 m/s 752 mmHg 83%
    13:00 +10°C° 1,9 mm 7 m/s 751 mmHg 86%
    14:00 +10°C° 1,4 mm 6 m/s 751 mmHg 88%
    15:00 +10°C° 1,4 mm 5 m/s 751 mmHg 89%
    16:00 +10°C° 1,4 mm 4 m/s 751 mmHg 91%
    17:00 +10°C° 0,2 mm 4 m/s 751 mmHg 92%
    18:00 +9°C° 0,2 mm 3 m/s 751 mmHg 93%
    19:00 +9°C° 0,2 mm 3 m/s 751 mmHg 94%
    20:00 +9°C° 0,1 mm 3 m/s 752 mmHg 95%
    21:00 +8°C° 0,1 mm 3 m/s 752 mmHg 95%
    22:00 +8°C° 0,1 mm 3 m/s 752 mmHg 95%
    23:00 +8°C° 0,1 mm 3 m/s 753 mmHg 95%

    Poimâine, 22 Ianuarie, Luni

    Timp Temperatura Precipitaţii Vânt Presiune Umiditate
    00:00 +8°C° 0,1 mm 3 m/s 753 mmHg 94%
    01:00 +7°C° 0,1 mm 3 m/s 753 mmHg 94%
    02:00 +6°C° 0,1 mm 4 m/s 753 mmHg 93%
    03:00 +6°C° 0,1 mm 4 m/s 754 mmHg 92%
    04:00 +6°C° 0,1 mm 5 m/s 754 mmHg 91%
    05:00 +5°C° 0 mm 5 m/s 754 mmHg 89%
    06:00 +5°C° 0 mm 5 m/s 755 mmHg 88%
    07:00 +3°C° 0 mm 6 m/s 756 mmHg 87%
    08:00 +4°C° 0 mm 6 m/s 756 mmHg 79%
    09:00 +5°C° 0 mm 6 m/s 757 mmHg 71%
    10:00 +7°C° 0 mm 6 m/s 757 mmHg 64%
    11:00 +8°C° 0 mm 6 m/s 757 mmHg 60%
    12:00 +8°C° 0 mm 6 m/s 757 mmHg 57%
    13:00 +8°C° 0 mm 6 m/s 757 mmHg 54%
    14:00 +8°C° 0 mm 6 m/s 758 mmHg 56%
    15:00 +8°C° 0 mm 5 m/s 758 mmHg 58%
    16:00 +7°C° 0 mm 5 m/s 758 mmHg 60%
    17:00 +6°C° 0 mm 5 m/s 759 mmHg 64%
    18:00 +5°C° 0 mm 4 m/s 759 mmHg 68%
    19:00 +4°C° 0 mm 4 m/s 760 mmHg 71%
    20:00 +4°C° 0 mm 4 m/s 760 mmHg 71%
    21:00 +4°C° 0 mm 3 m/s 761 mmHg 71%
    22:00 +3°C° 0 mm 3 m/s 761 mmHg 70%
    23:00 +3°C° 0 mm 3 m/s 761 mmHg 69%

    23 Ianuarie, Marţi

    Timp Temperatura Precipitaţii Vânt Presiune Umiditate
    00:00 +3°C° 0 mm 3 m/s 761 mmHg 67%
    01:00 +3°C° 0 mm 3 m/s 761 mmHg 66%
    02:00 +4°C° 0 mm 2 m/s 761 mmHg 65%
    03:00 +4°C° 0 mm 2 m/s 761 mmHg 65%
    04:00 +4°C° 0 mm 2 m/s 761 mmHg 64%
    05:00 +5°C° 0 mm 2 m/s 762 mmHg 64%
    06:00 +5°C° 0 mm 2 m/s 762 mmHg 64%
    07:00 +5°C° 0 mm 2 m/s 762 mmHg 64%
    08:00 +6°C° 0 mm 2 m/s 763 mmHg 59%
    09:00 +8°C° 0 mm 2 m/s 763 mmHg 55%
    10:00 +9°C° 0 mm 3 m/s 763 mmHg 50%
    11:00 +10°C° 0 mm 3 m/s 763 mmHg 48%
    12:00 +11°C° 0 mm 3 m/s 763 mmHg 45%
    13:00 +12°C° 0 mm 3 m/s 763 mmHg 42%
    14:00 +11°C° 0 mm 3 m/s 763 mmHg 46%
    15:00 +11°C° 0 mm 3 m/s 764 mmHg 50%
    16:00 +10°C° 0 mm 3 m/s 764 mmHg 54%
    17:00 +9°C° 0 mm 3 m/s 765 mmHg 56%
    18:00 +8°C° 0 mm 3 m/s 765 mmHg 57%
    19:00 +6°C° 0 mm 4 m/s 766 mmHg 59%
    20:00 +6°C° 0 mm 4 m/s 766 mmHg 59%
    21:00 +5°C° 0 mm 4 m/s 767 mmHg 59%
    22:00 +5°C° 0 mm 4 m/s 767 mmHg 59%
    23:00 +5°C° 0 mm 4 m/s 767 mmHg 59%

    24 Ianuarie, Miercuri

    Timp Temperatura Precipitaţii Vânt Presiune Umiditate
    00:00 +4°C° 0 mm 4 m/s 768 mmHg 59%
    01:00 +4°C° 0 mm 3 m/s 768 mmHg 58%
    02:00 +4°C° 0 mm 3 m/s 768 mmHg 58%
    03:00 +4°C° 0 mm 3 m/s 769 mmHg 58%
    04:00 +3°C° 0 mm 3 m/s 769 mmHg 57%
    05:00 +3°C° 0 mm 3 m/s 769 mmHg 57%
    06:00 +3°C° 0 mm 3 m/s 770 mmHg 57%
    07:00 +3°C° 0 mm 3 m/s 770 mmHg 57%
    08:00 +5°C° 0 mm 3 m/s 771 mmHg 52%
    09:00 +7°C° 0 mm 3 m/s 771 mmHg 47%
    10:00 +9°C° 0 mm 3 m/s 771 mmHg 42%
    11:00 +10°C° 0 mm 2 m/s 771 mmHg 39%
    12:00 +10°C° 0 mm 2 m/s 771 mmHg 37%
    13:00 +12°C° 0 mm 2 m/s 771 mmHg 34%
    14:00 +12°C° 0 mm 2 m/s 771 mmHg 38%
    15:00 +10°C° 0 mm 2 m/s 771 mmHg 43%
    16:00 +10°C° 0 mm 2 m/s 771 mmHg 47%
    17:00 +9°C° 0 mm 2 m/s 771 mmHg 49%
    18:00 +7°C° 0 mm 2 m/s 771 mmHg 51%
    19:00 +5°C° 0 mm 3 m/s 771 mmHg 53%
    20:00 +6°C° 0 mm 2 m/s 772 mmHg 53%
    21:00 +5°C° 0 mm 2 m/s 772 mmHg 54%
    22:00 +5°C° 0 mm 2 m/s 772 mmHg 54%
    23:00 +5°C° 0 mm 2 m/s 772 mmHg 54%

    25 Ianuarie, Joi

    Timp Temperatura Precipitaţii Vânt Presiune Umiditate
    00:00 +5°C° 0 mm 2 m/s 771 mmHg 54%
    01:00 +5°C° 0 mm 2 m/s 771 mmHg 53%
    02:00 +5°C° 0 mm 2 m/s 771 mmHg 52%
    03:00 +5°C° 0 mm 2 m/s 771 mmHg 52%
    04:00 +4°C° 0 mm 2 m/s 770 mmHg 51%
    05:00 +4°C° 0 mm 2 m/s 770 mmHg 50%
    06:00 +4°C° 0 mm 2 m/s 770 mmHg 49%
    07:00 +4°C° 0 mm 2 m/s 770 mmHg 49%
    08:00 +7°C° 0 mm 1 m/s 770 mmHg 44%
    09:00 +9°C° 0 mm 1 m/s 770 mmHg 40%
    10:00 +11°C° 0 mm 1 m/s 770 mmHg 36%
    11:00 +11°C° 0 mm 1 m/s 769 mmHg 35%
    12:00 +12°C° 0 mm 2 m/s 769 mmHg 35%
    13:00 +13°C° 0 mm 2 m/s 768 mmHg 34%
    14:00 +12°C° 0 mm 2 m/s 768 mmHg 40%
    15:00 +10°C° 0 mm 2 m/s 768 mmHg 45%
    16:00 +10°C° 0 mm 2 m/s 767 mmHg 51%
    17:00 +9°C° 0 mm 2 m/s 768 mmHg 53%
    18:00 +7°C° 0 mm 2 m/s 768 mmHg 55%
    19:00 +7°C° 0 mm 1 m/s 768 mmHg 57%
    20:00 +7°C° 0 mm 1 m/s 768 mmHg 56%
    21:00 +7°C° 0 mm 1 m/s 768 mmHg 55%
    22:00 +7°C° 0 mm 1 m/s 768 mmHg 54%
    23:00 +5°C° 0 mm 2 m/s 768 mmHg 52%
    Arată mai mult